Вернуться в каталог

STARLINK-34308

АктивенСвязьVLEO
NORAD 64258·PAYLOAD·🇺🇸 United States

Запущен Jun 4, 2025 с Vandenberg Space Force Base

Loading…

Ближайшие Пролёты (ближайшие 24 часа)

TLE

СвежийSource: CelesTrak SupGP

Эпоха: Sep 14, 2026, 20:48 UTC

1 64258C 25120C   26257.86715278 -.00015159  00000+0 -44793-3 0  2570
2 64258  53.1593 312.3399 0001126  80.7480 134.0241 15.34394664    11

Отслеживайте STARLINK-34308 в реальном времени с AllMySat

Download on the App Store